GW6499 Weather Reports


time (UTC)temp
C
wind
direction
speed
KPH
gust
KPH
rain 1hr
cm
rain 24hr
cm
rain mn
cm
humidity
%
barometer
mb
20260505122503 1 360 12.9 22.5 0.03 0.30 0.05 91 1014.7
20260505122007 1 338 11.3 20.9 0.03 0.30 0.05 91 1014.8
20260505121515 1 5 8.0 20.9 0.03 0.30 0.05 90 1014.9
20260505121004 1 322 11.3 22.5 0.03 0.30 0.05 90 1014.8
20260505120505 1 5 11.3 24.1 0.03 0.30 0.05 91 1014.7
20260505120048 1 340 9.7 24.1 0.03 0.30 0.05 90 1014.7
20260505115508 1 336 11.3 20.9 0.03 0.30 0.05 90 1014.6
20260505115010 1 325 8.0 24.1 0.03 0.30 0.05 90 1014.6
20260505114523 1 352 11.3 24.1 0.03 0.30 0.05 90 1014.5
20260505114010 2 355 11.3 24.1 0.03 0.30 0.05 90 1014.5
20260505113508 2 360 16.1 24.1 0.00 0.28 0.03 90 1014.5
20260505113006 2 22 14.5 24.1 0.00 0.28 0.03 90 1014.5
20260505112503 2 350 17.7 29.0 0.00 0.28 0.03 90 1014.4
20260505112004 2 32 16.1 29.0 0.00 0.28 0.03 90 1014.3
20260505111512 2 360 11.3 25.7 0.00 0.28 0.03 90 1014.2
20260505111009 2 348 12.9 32.2 0.03 0.28 0.03 90 1014.2
20260505110507 2 5 12.9 32.2 0.03 0.28 0.03 90 1014.1
20260505102015 3 317 14.5 30.6 0.03 0.28 0.03 90 1013.3
20260505101526 3 321 17.7 30.6 0.03 0.28 0.03 90 1013.1
20260505101005 4 355 16.1 29.0 0.00 0.25 0.00 90 1013.0
20260505100505 4 9 17.7 29.0 0.00 0.25 0.00 90 1013.0
20260505100020 4 328 14.5 29.0 0.00 0.25 0.00 90 1013.0
20260505095504 4 15 12.9 29.0 0.00 0.25 0.00 89 1013.1
20260505095008 4 335 16.1 27.4 0.00 0.25 0.00 89 1013.1
20260505094517 4 360 16.1 27.4 0.00 0.25 0.00 89 1013.0
20260505094009 4 360 9.7 24.1 0.00 0.25 0.00 89 1013.0
20260505093510 4 348 14.5 24.1 0.00 0.25 0.00 89 1012.9
20260505093021 4 342 11.3 27.4 0.00 0.25 0.00 89 1013.0
20260505092507 4 300 14.5 27.4 0.00 0.25 0.00 89 1013.0
20260505092013 4 360 14.5 27.4 0.00 0.25 0.00 89 1013.1
20260505091528 4 329 12.9 24.1 0.00 0.25 0.00 89 1013.1
20260505091009 4 360 14.5 25.7 0.00 0.25 0.00 88 1013.0
20260505090508 5 338 16.1 27.4 0.00 0.25 0.00 88 1012.8
20260505090037 5 329 12.9 27.4 0.00 0.25 0.00 88 1012.8
20260505085506 5 321 11.3 27.4 0.00 0.25 0.00 88 1012.8
20260505085004 5 5 9.7 27.4 0.00 0.25 0.00 87 1012.8
20260505084516 6 360 16.1 27.4 0.00 0.25 0.00 87 1012.8
20260505084007 7 338 4.8 14.5 0.00 0.25 0.00 88 1012.7
20260505083507 7 13 0.0 12.9 0.00 0.25 0.00 88 1012.7
20260505083018 7 10 0.0 9.7 0.00 0.25 0.00 87 1012.7
20260505082507 7 348 1.6 9.7 0.00 0.25 0.00 87 1012.8
20260505082008 7 334 1.6 8.0 0.00 0.25 0.00 87 1012.9
20260505081528 7 197 0.0 0.0 0.00 0.25 0.00 87 1012.9
20260505081008 7 180 0.0 0.0 0.00 0.25 0.00 87 1012.7
20260505080508 7 180 0.0 0.0 0.00 0.25 0.00 87 1012.8
20260505080033 7 180 0.0 0.0 0.00 0.25 0.00 87 1012.9
20260505075512 7 180 0.0 0.0 0.00 0.25 0.00 87 1012.7
20260505075012 7 180 0.0 0.0 0.00 0.25 0.00 87 1012.6
20260505074526 7 180 0.0 0.0 0.00 0.25 0.00 87 1012.7
20260505074009 7 180 0.0 0.0 0.00 0.25 0.00 87 1012.8
20260505073506 7 180 0.0 0.0 0.00 0.25 0.00 87 1012.7
20260505073027 7 180 0.0 6.4 0.00 0.25 0.00 87 1012.9
20260505072511 7 180 0.0 6.4 0.00 0.25 0.00 87 1012.9
20260505072007 7 179 0.0 6.4 0.00 0.25 0.00 87 1012.7
20260505071520 7 180 0.0 4.8 0.00 0.25 0.00 87 1012.8
20260505071006 7 259 0.0 0.0 0.00 0.25 0.00 86 1013.0
20260505070512 7 259 0.0 0.0 0.00 0.25 0.00 86 1013.0
20260505070026 7 259 0.0 0.0 0.00 0.25 0.00 86 1013.1
20260505065508 7 259 0.0 0.0 0.00 0.25 0.00 86 1013.0
20260505065012 7 259 0.0 0.0 0.00 0.25 0.00 86 1013.1
20260505064538 7 259 0.0 0.0 0.00 0.25 0.00 86 1013.2
20260505064010 7 259 0.0 0.0 0.00 0.25 0.00 86 1013.2
20260505063509 7 259 0.0 0.0 0.00 0.25 0.00 86 1013.0
20260505063029 7 260 0.0 0.0 0.00 0.25 0.00 86 1013.0
20260505062511 7 260 0.0 0.0 0.00 0.25 0.00 86 1013.1
20260505062006 7 260 0.0 0.0 0.00 0.25 0.00 85 1013.1
20260505061530 7 260 0.0 0.0 0.00 0.25 0.00 85 1013.1
20260505061007 7 261 0.0 0.0 0.00 0.25 0.00 85 1013.2
20260505060508 7 261 0.0 0.0 0.00 0.25 0.00 85 1013.2
20260505060022 7 262 0.0 0.0 0.00 0.25 0.00 84 1013.2
20260505055512 7 263 0.0 0.0 0.00 0.25 0.25 84 1013.1
20260505055011 7 266 0.0 0.0 0.00 0.25 0.25 84 1013.1
20260505054544 7 266 0.0 0.0 0.00 0.25 0.25 85 1013.2
20260505054012 7 273 0.0 0.0 0.00 0.25 0.25 85 1013.3
20260505053510 7 273 0.0 0.0 0.00 0.25 0.25 85 1013.1
20260505053032 7 273 0.0 0.0 0.00 0.25 0.25 85 1013.1
20260505052507 7 273 0.0 0.0 0.00 0.25 0.25 85 1013.2
20260505052014 7 273 0.0 0.0 0.00 0.25 0.25 85 1013.2
20260505051517 7 273 0.0 0.0 0.00 0.25 0.25 85 1013.2
20260505051009 7 273 0.0 0.0 0.00 0.25 0.25 85 1013.4
20260505050506 7 273 0.0 0.0 0.00 0.25 0.25 85 1013.6
20260505041514 7 277 0.0 0.0 0.13 0.25 0.25 86 1013.7
20260505041006 7 277 0.0 0.0 0.15 0.25 0.25 86 1014.0
20260505040506 7 279 0.0 4.8 0.18 0.25 0.25 86 1014.0
20260505040018 7 360 0.0 4.8 0.18 0.25 0.25 86 1013.8
20260505035507 7 360 0.0 0.0 0.15 0.23 0.23 85 1013.8
20260505035007 7 360 0.0 0.0 0.15 0.23 0.23 85 1013.5
20260505034526 7 360 0.0 12.9 0.15 0.23 0.23 84 1013.6
20260505034011 7 360 0.0 20.9 0.13 0.20 0.20 84 1013.8
20260505033510 7 360 6.4 22.5 0.13 0.20 0.20 84 1013.9
20260505033024 7 320 12.9 22.5 0.10 0.18 0.18 83 1014.1
20260505032503 7 360 11.3 22.5 0.10 0.18 0.18 83 1014.0
20260505032005 8 360 11.3 24.1 0.08 0.15 0.15 82 1013.8
20260505031526 8 360 16.1 24.1 0.05 0.13 0.13 81 1013.5
20260505031003 8 319 14.5 24.1 0.03 0.10 0.10 79 1013.4
20260505030504 8 282 8.0 22.5 0.00 0.08 0.08 77 1013.4
20260505030015 9 332 12.9 22.5 0.00 0.08 0.08 75 1013.3
20260505025507 9 360 6.4 16.1 0.00 0.08 0.08 75 1013.2
20260505025008 9 331 9.7 16.1 0.00 0.08 0.08 74 1013.0
20260505024529 9 340 6.4 17.7 0.00 0.08 0.08 73 1012.9
20260505024007 9 5 6.4 17.7 0.00 0.08 0.08 73 1012.8
20260505023508 9 360 8.0 19.3 0.00 0.08 0.08 72 1012.6
20260505023030 10 327 4.8 19.3 0.00 0.08 0.08 71 1012.5
20260505022508 10 12 11.3 20.9 0.00 0.08 0.08 69 1012.4
20260505022012 10 9 4.8 20.9 0.00 0.08 0.08 68 1012.3
20260505021527 11 180 0.0 4.8 0.00 0.08 0.08 71 1012.3
20260505021006 11 178 0.0 0.0 0.00 0.08 0.08 71 1012.0
20260505020503 11 178 0.0 0.0 0.00 0.08 0.08 72 1012.1
20260505020020 11 178 0.0 0.0 0.00 0.08 0.08 72 1012.1
20260505015504 11 178 0.0 0.0 0.00 0.08 0.08 72 1012.2
20260505015007 11 178 0.0 0.0 0.00 0.08 0.08 71 1012.2
20260505014512 11 178 0.0 0.0 0.00 0.08 0.08 72 1012.2
20260505014008 11 178 0.0 0.0 0.00 0.08 0.08 71 1011.9
20260505013509 11 178 0.0 0.0 0.03 0.08 0.08 72 1011.8
20260505013017 10 178 0.0 0.0 0.03 0.08 0.08 71 1011.8
20260505012509 10 178 0.0 0.0 0.03 0.08 0.08 70 1011.8
20260505012009 10 178 0.0 0.0 0.03 0.08 0.08 71 1011.9
20260505011531 10 178 0.0 0.0 0.05 0.08 0.08 71 1011.9
20260505011009 10 177 0.0 0.0 0.08 0.08 0.08 68 1011.9
20260505010513 10 177 0.0 0.0 0.08 0.08 0.08 70 1011.8
20260505010027 10 177 0.0 0.0 0.08 0.08 0.08 71 1011.7
20260505005503 10 177 0.0 0.0 0.08 0.08 0.08 72 1011.8
20260505005004 10 177 0.0 0.0 0.08 0.08 0.08 71 1011.8
20260505004529 10 177 0.0 4.8 0.08 0.08 0.08 73 1011.9
20260505004007 10 177 0.0 8.0 0.08 0.08 0.08 72 1011.9
20260505003507 10 177 1.6 9.7 0.05 0.05 0.05 70 1012.0
20260505003016 11 173 1.6 9.7 0.05 0.05 0.05 69 1012.2
20260505002509 11 168 1.6 17.7 0.05 0.05 0.05 66 1012.3
20260505002012 11 170 1.6 22.5 0.05 0.05 0.05 58 1012.6
20260505001520 12 178 6.4 22.5 0.03 0.03 0.03 57 1012.5
20260505001014 13 271 0.0 17.7 0.00 0.00 0.00 48 1012.3
20260505000513 13 360 8.0 17.7 0.00 0.00 0.00 46 1011.9
20260505000036 13 332 8.0 19.3 0.00 0.00 0.00 46 1011.7
20260504235510 13 275 12.9 19.3 0.00 0.00 0.00 46 1011.6
20260504235010 13 360 14.5 19.3 0.00 0.00 0.00 46 1011.5
20260504234528 13 341 4.8 20.9 0.00 0.00 0.00 46 1011.5
20260504234010 13 350 8.0 20.9 0.00 0.00 0.00 45 1011.3
20260504233503 13 5 4.8 22.5 0.00 0.00 0.00 45 1011.3
20260504233013 13 349 12.9 22.5 0.00 0.00 0.00 44 1011.2
20260504232507 13 346 11.3 20.9 0.00 0.00 0.00 45 1011.2
20260504232010 13 360 12.9 27.4 0.00 0.00 0.00 44 1011.1
20260504231518 13 5 14.5 32.2 0.00 0.00 0.00 45 1011.1
20260504231009 13 316 11.3 32.2 0.00 0.00 0.00 45 1011.1
20260504230506 14 360 14.5 33.8 0.00 0.00 0.00 44 1010.9
20260504230022 15 360 17.7 33.8 0.00 0.00 0.00 43 1010.8
20260504225507 15 5 11.3 30.6 0.00 0.00 0.00 41 1010.7
20260504225015 15 24 11.3 27.4 0.00 0.00 0.00 40 1010.7
20260504224525 15 20 14.5 27.4 0.00 0.00 0.00 39 1010.7
20260504224014 15 330 14.5 25.7 0.00 0.00 0.00 40 1010.8
20260504223511 15 21 14.5 25.7 0.00 0.00 0.00 42 1010.9
20260504223026 15 348 11.3 30.6 0.00 0.00 0.00 42 1011.0
20260504222511 15 12 19.3 30.6 0.00 0.00 0.00 42 1011.1
20260504222010 15 344 16.1 35.4 0.00 0.00 0.00 40 1011.0
20260504221515 15 41 19.3 35.4 0.00 0.00 0.00 39 1010.9
20260504221008 15 38 22.5 33.8 0.00 0.00 0.00 39 1010.5
20260504220510 15 32 20.9 33.8 0.00 0.00 0.00 39 1010.4
20260504220020 15 17 16.1 33.8 0.00 0.00 0.00 38 1010.5
20260504215507 15 11 19.3 43.5 0.00 0.00 0.00 36 1010.2
20260504215013 16 13 22.5 43.5 0.00 0.00 0.00 35 1010.1
20260504214524 17 30 22.5 37.0 0.00 0.00 0.00 30 1010.0
20260504214009 17 26 8.0 22.5 0.00 0.00 0.00 27 1009.7
20260504213514 18 21 6.4 22.5 0.00 0.00 0.00 28 1009.5
20260504213029 18 37 1.6 20.9 0.00 0.00 0.00 28 1009.4
20260504212515 18 64 0.0 17.7 0.00 0.00 0.00 28 1009.5
20260504212011 18 53 8.0 19.3 0.00 0.00 0.00 28 1009.6
20260504211526 18 54 8.0 19.3 0.00 0.00 0.00 28 1009.7
20260504211010 18 91 4.8 19.3 0.00 0.00 0.00 27 1009.8
20260504210508 18 80 3.2 16.1 0.00 0.00 0.00 27 1009.9
20260504210022 18 65 3.2 16.1 0.00 0.00 0.00 27 1010.1
20260504205508 18 67 6.4 14.5 0.00 0.00 0.00 28 1010.1
20260504205010 18 78 4.8 16.1 0.00 0.00 0.00 29 1010.1
20260504204524 18 67 3.2 16.1 0.00 0.00 0.00 30 1010.3
20260504204010 17 80 3.2 17.7 0.00 0.00 0.00 30 1010.5
20260504203514 17 32 3.2 17.7 0.00 0.00 0.00 31 1010.7
20260504203028 17 26 8.0 27.4 0.00 0.00 0.00 32 1010.8
20260504202513 17 44 14.5 27.4 0.00 0.00 0.00 33 1010.9
20260504202017 16 39 17.7 24.1 0.00 0.00 0.00 33 1010.8
20260504201526 16 5 8.0 25.7 0.00 0.00 0.00 35 1011.0
20260504201010 16 352 6.4 25.7 0.00 0.00 0.00 36 1011.1
20260504200507 16 360 4.8 17.7 0.00 0.00 0.00 36 1011.3
20260504200016 16 350 9.7 20.9 0.00 0.00 0.00 37 1011.3
20260504195507 15 37 14.5 20.9 0.00 0.00 0.00 37 1011.1
20260504195007 15 40 3.2 20.9 0.00 0.00 0.00 37 1010.9
20260504194518 15 42 4.8 22.5 0.00 0.00 0.00 37 1010.9
20260504194009 15 69 11.3 22.5 0.00 0.00 0.00 35 1010.9
20260504193502 16 55 9.7 22.5 0.00 0.00 0.00 35 1011.0
20260504193004 16 46 4.8 14.5 0.00 0.00 0.00 34 1011.0
20260504192504 16 88 6.4 14.5 0.00 0.00 0.00 33 1011.3
20260504192006 16 175 0.0 16.1 0.00 0.00 0.00 34 1011.5
20260504191508 16 175 3.2 17.7 0.00 0.00 0.00 33 1011.6
20260504191003 16 175 4.8 19.3 0.00 0.00 0.00 31 1011.6
20260504190506 16 159 3.2 19.3 0.00 0.00 0.00 31 1011.4
20260504190010 17 144 6.4 22.5 0.00 0.00 0.00 29 1011.3
20260504185507 17 153 4.8 22.5 0.00 0.00 0.00 28 1011.1
20260504185007 17 175 4.8 20.9 0.00 0.00 0.00 27 1010.9
20260504184518 18 134 6.4 20.9 0.00 0.00 0.00 24 1010.7
20260504184009 18 70 1.6 14.5 0.00 0.00 0.00 23 1010.4
20260504183511 18 78 1.6 16.1 0.00 0.00 0.00 24 1010.3
20260504183019 18 77 6.4 16.1 0.00 0.00 0.00 23 1010.3
20260504182509 18 59 4.8 14.5 0.00 0.00 0.00 23 1010.2
20260504182005 18 65 3.2 14.5 0.00 0.00 0.00 23 1010.2
20260504181507 19 46 4.8 17.7 0.00 0.00 0.00 24 1010.1
20260504181004 19 63 1.6 19.3 0.00 0.00 0.00 25 1010.1
20260504180504 19 79 1.6 19.3 0.00 0.00 0.00 24 1010.1
20260504180010 19 78 0.0 16.1 0.00 0.00 0.00 24 1010.1
20260504175503 19 346 0.0 17.7 0.00 0.00 0.00 24 1010.3
20260504175006 19 40 6.4 22.5 0.00 0.00 0.00 24 1010.2
20260504174514 20 9 12.9 22.5 0.00 0.00 0.00 23 1010.3
20260504174004 20 344 8.0 19.3 0.00 0.00 0.00 21 1010.4
20260504173509 20 360 3.2 14.5 0.00 0.00 0.00 22 1010.5
20260504173020 20 264 0.0 12.9 0.00 0.00 0.00 21 1010.7
20260504172509 20 33 1.6 16.1 0.00 0.00 0.00 22 1010.7
20260504172009 19 20 4.8 19.3 0.00 0.00 0.00 22 1010.9
20260504171524 19 360 8.0 22.5 0.00 0.00 0.00 22 1010.9
20260504171010 19 360 9.7 24.1 0.00 0.00 0.00 24 1010.8
20260504170512 19 360 14.5 25.7 0.00 0.00 0.00 24 1010.9
20260504151006 17 265 0.0 20.9 0.00 0.00 0.00 26 1011.9
20260504150511 17 271 4.8 24.1 0.00 0.00 0.00 26 1012.0
20260504141009 14 360 4.8 16.1 0.00 0.00 0.00 28 1012.0
20260504140509 13 312 4.8 16.1 0.00 0.00 0.00 28 1012.0
20260504130507 12 347 0.0 0.0 0.00 0.00 0.00 29 1011.7